Weather History for KROG - February, 2012

Change the Weather History Date:

Saturday, February 18, 2012

  Actual Average Record
Temperature  
Mean Temperature 42 °F -  
Max Temperature 48 °F 49 °F 66 °F (2011)
Min Temperature 37 °F 32 °F 12 °F (2006)
Degree Days  
Heating Degree Days 22    
Moisture  
Dew Point 37 °F    
Average Humidity 76    
Maximum Humidity 90    
Minimum Humidity 65    
Precipitation  
Precipitation 0.00 in - - ()
Sea Level Pressure  
Sea Level Pressure 30.06 in    
Wind  
Wind Speed 7 mph (NE)    
Max Wind Speed 14 mph    
Max Gust Speed -    
Visibility 10 miles    
Events Rain    
Averages and records for this station are not official NWS values.
T = Trace of Precipitation, MM = Missing Value Source: NWS Daily Summary

Daily Weather History Graph

Daily Weather History Graph

Search for Another Location

Airport or City:

Trip Planner

Search our weather history database for the weather conditions in past years. The results will help you decide how hot, cold, wet, or windy it might be!

Date:

Astronomy

Feb. 18, 2012 Rise Set
Actual Time 7:01 AM CST 5:59 PM CST
Civil Twilight 6:35 AM CST 6:26 PM CST
Nautical Twilight 6:04 AM CST 6:56 PM CST
Astronomical Twilight 5:35 AM CST 7:26 PM CST
Moon 4:37 AM CST (2/18) 3:01 PM CST (2/18)
Length of Visible Light 11h 51m
Length of Day
10h 58m
Waning Crescent, 11% of the Moon is Illuminated
Feb 18
Waning Crescent
Feb 21
New
Feb 29
First Quarter
Mar 8
Full
Mar 14
Last Quarter

Hourly Weather History & Observations

Time (CST) Temp. Windchill Dew Point Humidity Pressure Visibility Wind Dir Wind Speed Gust Speed Precip Events Conditions
12:57 AM 46.9 °F - 42.1 °F 83% 30.10 in 9.0 mi NNE 4.6 mph - N/A   Overcast
1:57 AM 46.0 °F 43.9 °F 42.1 °F 86% 30.09 in 10.0 mi NE 4.6 mph - N/A   Overcast
2:49 AM 46.4 °F 44.3 °F 42.8 °F 87% 30.06 in 10.0 mi East 4.6 mph - N/A   Overcast
2:57 AM 46.9 °F - 41.0 °F 80% 30.06 in 10.0 mi East 3.5 mph - N/A   Overcast
3:15 AM 46.4 °F 44.3 °F 41.0 °F 81% 30.06 in 10.0 mi ENE 4.6 mph - N/A   Overcast
3:57 AM 45.0 °F - 41.0 °F 86% 30.07 in 10.0 mi Calm Calm - N/A   Overcast
4:57 AM 45.0 °F - 42.1 °F 90% 30.07 in 10.0 mi Calm Calm - 0.00 in Rain Light Rain
7:57 AM 45.0 °F 41.8 °F 42.1 °F 90% 30.09 in 7.0 mi NNE 5.8 mph - N/A   Overcast
8:57 AM 46.0 °F 41.4 °F 41.0 °F 83% 30.09 in 9.0 mi NNE 9.2 mph - N/A   Overcast
9:57 AM 46.9 °F - 39.9 °F 77% 30.11 in 10.0 mi NNE 10.4 mph - N/A   Overcast
10:57 AM 46.0 °F 41.4 °F 39.9 °F 79% 30.09 in 10.0 mi North 9.2 mph - N/A   Overcast
11:57 AM 46.9 °F - 37.9 °F 71% 30.07 in 10.0 mi NE 9.2 mph - N/A   Overcast
1:57 PM 48.0 °F - 37.0 °F 66% 30.02 in 10.0 mi East 11.5 mph - N/A   Overcast
2:57 PM 48.0 °F - 37.0 °F 66% 30.02 in 10.0 mi NE 12.7 mph - N/A   Overcast
3:57 PM 46.9 °F - 36.0 °F 66% 30.01 in 10.0 mi NNE 13.8 mph - N/A   Clear
4:57 PM 45.0 °F 38.5 °F 35.1 °F 68% 30.03 in 10.0 mi NNE 13.8 mph - N/A   Mostly Cloudy
5:57 PM 44.1 °F 38.1 °F 34.0 °F 68% 30.04 in 10.0 mi NNE 11.5 mph - N/A   Overcast
6:57 PM 42.1 °F 35.7 °F 33.1 °F 70% 30.06 in 10.0 mi NNE 11.5 mph - N/A   Overcast
7:57 PM 39.9 °F 33.9 °F 30.9 °F 70% 30.06 in 10.0 mi North 9.2 mph - N/A   Mostly Cloudy
8:57 PM 39.0 °F 32.3 °F 30.0 °F 70% 30.06 in 10.0 mi NNE 10.4 mph - N/A   Clear
9:57 PM 37.9 °F 33.5 °F 28.9 °F 70% 30.06 in 10.0 mi North 5.8 mph - N/A   Clear
10:57 PM 37.9 °F 31.5 °F 28.0 °F 68% 30.06 in 10.0 mi NE 9.2 mph - N/A   Clear
11:57 PM 37.9 °F 32.7 °F 27.0 °F 65% 30.06 in 10.0 mi NNE 6.9 mph - N/A   Clear